Home   Weather   Narvik   Past weeks

Flag for Norway Past Weather in Narvik, Norway — Yesterday and Last 2 Weeks

Now
34 °F

Passing clouds.


Feels Like: 23 °F
Forecast: 29 / 35 °F
Wind: 17 mph from Southeast

Location: Narvik Iii/Framnes

Current Time: Jan 16, 2017 at 6:31:57 pm

Latest Report: Jan 16, 2017 at 5:50 pm


Visibility: N/A

Pressure: 29.95 "Hg

Humidity: 65%

Dew Point: 23 °F

Location of NarvikLocation

Past Weather in Narvik — Graph

°F

Narvik Temperature Yesterday

Maximum temperature yesterday: 25 °F (at 2:50 pm)
Minimum temperature yesterday: 23 °F (at 5:50 pm)
Average temperature yesterday: 24 °F

High & Low Weather Summary for the Past Weeks

 TemperatureHumidityPressure
High45 °F (Jan 6, 5:50 pm)100% (Jan 8, 7:50 pm)30.36 "Hg (Jan 8, 7:50 pm)
Low7 °F (Jan 4, 6:50 pm)44% (Jan 5, 1:50 pm)28.77 "Hg (Jan 12, 6:50 am)
Average27 °F73%29.54 "Hg
* Reported Jan 1 4:50 pm — Jan 16 4:50 pm, Narvik, Weather by CustomWeather, © 2017

Note: Actual official high and low records may vary slightly from our data, if they occured in-between our weather recording intervals... More about our weather records

Advertising

Narvik Weather History for the Previous 24 Hours

Scroll right to see more
 ConditionsComfort  
Time TempWeatherWind HumidityBarometerVisibility
4:50 pm
Mon, Jan 16
30 °FPassing clouds.3 mph69%30.01 "HgN/A
3:50 pm28 °FPassing clouds.6 mph64%30.04 "HgN/A
2:50 pm27 °FPassing clouds.8 mph74%30.04 "HgN/A
2:20 pm27 °FPassing clouds.5 mph69%30.04 "HgN/A
1:50 pm25 °FPassing clouds.5 mph74%30.07 "HgN/A
12:50 pm25 °FPartly sunny.8 mph80%30.09 "HgN/A
11:50 am23 °FSunny.6 mph80%30.12 "Hg10 mi
10:50 am23 °FSunny.7 mph80%30.12 "Hg10 mi
9:50 am23 °FClear.2 mph80%30.12 "Hg10 mi
8:50 am21 °FClear.2 mph80%30.12 "Hg10 mi
7:50 am25 °FClear.9 mph74%30.12 "Hg10 mi
6:50 am23 °FClear.7 mph74%30.12 "Hg10 mi
5:50 am23 °FClear.6 mph74%30.15 "Hg10 mi
9:50 pm
Sun, Jan 15
25 °FPassing clouds.8 mph69%30.04 "HgN/A
8:50 pm25 °FPassing clouds.3 mph69%30.01 "HgN/A
7:50 pm25 °FClear.3 mph63%29.98 "Hg10 mi
6:50 pm23 °FPassing clouds.3 mph63%29.95 "HgN/A
Weather by CustomWeather, © 2017

See weather overviewHow to use our weather pages